Regional Weather Roundup
Issued by NWS

Home | Current Version | Previous Version | Text Only | Print | Product List | Glossary On
Versions: 1 2 3 4 5 6 7 8 9 10 11 12 13 14 15 16 17 18 19 20 21 22 23 24 25 26 27 28 29 30 31 32 33 34 35 36 37 38 39 40 41 42 43 44 45 46 47 48 49 50
000
ASUS43 KDMX 090506
RWRIA

WEATHER ROUNDUP FOR IOWA
NATIONAL WEATHER SERVICE DES MOINES IA
1100 PM CST THU DEC 08 2016

NOTE: "FAIR" INDICATES FEW OR NO CLOUDS BELOW 12,000 FEET WITH NO
SIGNIFICANT WEATHER AND/OR OBSTRUCTIONS TO VISIBILITY.

* - THESE STATIONS ARE NOT NWS STATIONS...THUS NOT UNDER NWS
QUALITY CONTROL.  THEY ALSO DO NOT REPORT WEATHER SUCH
AS PRECIPITATION OR FOG.

IAZ001>003-012>014-020>022-031>034-043>046-090600-
   NORTHWEST IOWA

CITY           SKY/WX    TMP DP  RH WIND       PRES   REMARKS
CARROLL *      CLEAR     14   9  79 NW14      30.59S WCI  -1
CHEROKEE *     CLEAR     10   7  86 NW5       30.60S WCI   2
DENISON *      CLEAR     12   7  79 NW8       30.59S WCI   1
LE MARS *      CLEAR      9   5  85 NW6       30.63S WCI  -1
ORANGE CITY *  CLEAR      7   5  92 CALM      30.58S
SHELDON *      CLEAR      9   5  85 NW10      30.57S WCI  -6
SIOUX CITY     CLEAR     12   5  73 NW10      30.64S WCI  -1
SPENCER        CLEAR      9   5  84 W16       30.58R WCI  -8
STORM LAKE *   CLEAR     10   7  85 NW12      30.57R WCI  -4
$$

IAZ055>058-069>071-079>083-090>094-090600-
   SOUTHWEST IOWA

CITY           SKY/WX    TMP DP  RH WIND       PRES   REMARKS
ATLANTIC *     CLEAR     14   9  79 NW12      30.61S WCI   0
AUDUBON *      CLEAR     12   9  85 NW6       30.59S WCI   3
CLARINDA *     CLEAR     16   9  73 N7        30.65S WCI   6
COUNCIL BLFS * CLEAR     14   7  73 NW6       30.62S WCI   5
CRESTON *      CLEAR     14   7  73 NW12      30.60R WCI   0
HARLAN  *      CLEAR     12   7  79 NW10      30.64S WCI  -1
LAMONI         CLEAR     11   7  84 W7        30.59R WCI   0
RED OAK *      CLEAR     16   9  73 NW12      30.63S WCI   3
SHENANDOAH *   CLEAR     14   9  79 CALM      30.65S
$$

IAZ047>049-059>061-072>074-084-090600-
   CENTRAL IOWA

CITY           SKY/WX    TMP DP  RH WIND       PRES   REMARKS
AMES           CLOUDY    18  12  77 NW10      30.57S WCI   6
ANKENY *       CLOUDY    18  10  73 NW12      30.60R WCI   5
BOONE *        FLURRIES  16   9  73 NW12      30.56R WCI   3
CHARITON *     CLEAR     16   9  73 NW8       30.58R WCI   5
DES MOINES     PTCLDY    17   9  70 NW13      30.59R WCI   4
GRINNELL*      CLOUDY    19  12  74 NW13      30.55S WCI   6
KNOXVILLE *    CLOUDY    18   9  68 NW10      30.56R WCI   6
MARSHALLTOWN   FLURRIES  18  13  80 NW18      30.54R WCI   2
NEWTON *       CLOUDY    19  14  79 NW14      30.55S WCI   6
PELLA *        CLOUDY    20  12  71 NW15      30.57S WCI   6
PERRY *          N/A     15  11  85 NW8       30.59S WCI   4
$$

IAZ004>006-015-016-023>025-035-036-090600-
   NORTH CENTRAL IOWA

CITY           SKY/WX    TMP DP  RH WIND       PRES   REMARKS
ALGONA *       FLURRIES  16  12  86 N13       30.54S WCI   2
CLARION *      CLOUDY    16  10  79 N14G22    30.54S HAZE    WCI   1
ESTHERVILLE    LGT SNOW  12   8  84 NW15      30.55S FOG     WCI  -4
FORT DODGE *   CLOUDY    12   5  73 NW9       30.57S WCI   0
MASON CITY     CLOUDY    14   8  77 NW12      30.54R WCI   0
FOREST CITY *  CLOUDY    14  10  85 NW8       30.53S WCI   3
WEBSTER CITY * FLURRIES  18  10  73 NW16G22   30.54S WCI   3
IOWA FALLS *   FLURRIES  18  11  74 NW18      30.54S WCI   3
$$

IAZ007>011-017>019-026>030-037>042-050>054-066-090600-
   NORTHEAST IOWA

CITY           SKY/WX    TMP DP  RH WIND       PRES   REMARKS
CEDAR RAPIDS   CLOUDY    19  14  81 NW16      30.51R WCI   4
CHARLES CITY * FLURRIES  16  10  79 W17       30.51S WCI   0
CLINTON *      FLURRIES  21  16  81 W17       30.49R WCI   7
DECORAH *      FLURRIES  18  14  86 NW7G16    30.46R WCI   8
DUBUQUE        CLOUDY    19  13  77 W14       30.46R WCI   6
MONTICELLO *   CLOUDY    19  12  73 NW15      30.49R WCI   5
OELWEIN *      CLOUDY    18  12  79 NW16      30.50R WCI   3
WATERLOO       CLOUDY    17   9  70 NW12      30.53R WCI   4
$$

IAZ064-065-067-068-078-090600-
   EAST CENTRAL IOWA

CITY           SKY/WX    TMP DP  RH WIND       PRES   REMARKS
DAVENPORT      CLOUDY    21  12  68 NW16      30.50S WCI   7
IOWA CITY      FLURRIES  22  13  68 NW12      30.55R WCI  10
MUSCATINE *    CLOUDY    23  14  68 MISG      30.55R
QUAD CITIES    CLOUDY    23  11  60 W13       30.51R WCI  11
$$

IAZ062-063-075>077-085>089-095>099-090600-
   SOUTHEAST IOWA

CITY           SKY/WX    TMP DP  RH WIND       PRES   REMARKS
BURLINGTON     CLOUDY    22  14  71 NW8       30.54R WCI  12
FAIRFIELD *    CLOUDY    21  12  68 NW17      30.54S WCI   7
FORT MADISON * CLOUDY    21  12  68 W10       30.55R WCI  10
KEOKUK *       CLOUDY    21  14  73 W9        30.56R WCI  11
OSKALOOSA *    FLURRIES  21  15  76 NW12      30.55S WCI   9
CENTERVILLE *    N/A     14  10  85 W8        30.58S WCI   3
WASHINGTON *   CLOUDY    21  14  73 NW13G18   30.56R WCI   9
$$

ABBREVIATIONS USED IN REMARKS
   TC - TEMPERATURES IN CELSIUS
  WCI - WIND CHILL INDEX
   HX - HEAT INDEX
  VSB - VISIBILITY
$$





USA.gov is the U.S. government's official web portal to all federal, state and local government web resources and services.